Location: Newark
(45.2500°N, 7.5833°E)
Time: 02:14:38
(UTC+00:00)

BEESAT 2 - Pass Details

Date: 29 February 2020
Orbit: 494 x 533 km, 64.9° (Epoch: 06 April)

Event Time Altitude Azimuth Distance (km) Brightness Sun altitude
Rises 19:58:39 0° 308° (NW) 2,687 ? -29.0°
Reaches altitude 10° 20:01:31 10° 287° (WNW) 1,789 ? -29.5°
Maximum altitude 20:03:59 16° 249° (WSW) 1,441 ? -29.9°
Enters shadow 20:04:33 16° 239° (WSW) 1,459 ? -30.0°
